Regional Weather Roundup
Issued by NWS

Home | Current Version | Previous Version | Text Only | Print | Product List | Glossary Off
Versions: 1 2 3 4 5 6 7 8 9 10 11 12 13 14 15 16 17 18 19 20 21 22 23 24 25 26 27 28 29 30 31 32 33 34 35 36 37 38 39 40 41 42 43 44 45 46 47 48 49 50

000
ASUS45 KBOI 281510
RWRID

IDAHO REGIONAL WEATHER ROUNDUP
NATIONAL WEATHER SERVICE BOISE ID
900 AM MDT WED JUN 28 2017

NOTE: "FAIR" INDICATES FEW OR NO CLOUDS BELOW 12000 FEET
WITH NO SIGNIFICANT WEATHER AND/OR OBSTRUCTIONS TO VISIBILITY

IDZ012-014-281600-
SOUTHWEST IDAHO


CITY           SKY/WX    TMP DP  RH WIND       PRES   REMARKS
BOISE          SUNNY     68  44  42 W7        29.88R
CALDWELL       SUNNY     69  41  36 W13       29.88S
MOUNTAIN HOME  SUNNY     70  47  44 NW5       29.88R
$$

IDZ016-017-281600-
SOUTHCENTRAL IDAHO


CITY           SKY/WX    TMP DP  RH WIND       PRES   REMARKS
BURLEY         SUNNY     64  52  64 VRB6      29.91R
JEROME         MOSUNNY   65  52  62 NE8       29.92R
TWIN FALLS     SUNNY     65  49  56 W14       29.93R
$$

IDZ019>023-281600-
SOUTHEAST IDAHO


CITY           SKY/WX    TMP DP  RH WIND       PRES   REMARKS
IDAHO FALLS    CLOUDY    61  52  72 N3        29.95S
POCATELLO      MOSUNNY   65  51  60 E7        29.94R
REXBURG        PTSUNNY   56  49  77 NE5       29.96R
$$

IDZ006-010-011-018-031-032-281600-
CENTRAL IDAHO MOUNTAINS


CITY           SKY/WX    TMP DP  RH WIND       PRES   REMARKS
MCCALL         SUNNY     58  48  69 CALM      29.92S
HAILEY         PTSUNNY   61  45  55 W9        30.00F
STANLEY          N/A     53  46  77 S8G18     30.03F
SALMON         SUNNY     57  50  77 N5        29.90S
CHALLIS        PTSUNNY   61  45  55 S22G28    29.96F
$$

IDZ002-004-006-007-026-281600-
NORTHERN IDAHO


CITY           SKY/WX    TMP DP  RH WIND       PRES   REMARKS
LEWISTON       SUNNY     63  49  60 VRB6      29.85F
LOWELL           N/A     59  51  75 CALM      29.87F
COEUR D`ALENE  MOSUNNY   60  46  59 NW3       29.87R
MULLAN PASS    SUNNY     52  36  54 VRB5      29.95S
$$



USA.gov is the U.S. government's official web portal to all federal, state and local government web resources and services.